This is the latest recevied weather packets stored in our database for station/object YC0TBU-3. If no packets are shown the sender has not sent any weather packets the latest 10 day(s).
| Time | Temp. | Humidity | Pressure | Rain* | Wind** | Luminosity | Snow |
|---|---|---|---|---|---|---|---|
| 1777271535 | 26.11° C | 47% | 1007.6 hPa | - | - | - | - |
| 1777260222 | 26.11° C | 48% | 1011.7 hPa | - | - | - | - |
| 1777259517 | 26.11° C | 49% | 1013.3 hPa | - | - | - | - |
| 1777258812 | 25.56° C | 49% | 1012.8 hPa | - | - | - | - |
| 1777258107 | 25.56° C | 49% | 1013.8 hPa | - | - | - | - |
| 1777257402 | 25.56° C | 49% | 1013.3 hPa | - | - | - | - |
| 1777256697 | 25.56° C | 49% | 1014.8 hPa | - | - | - | - |
| 1777255992 | 25.56° C | 50% | 1013.3 hPa | - | - | - | - |
| 1777255287 | 25.56° C | 50% | 1012.8 hPa | - | - | - | - |
| 1777254582 | 25.56° C | 50% | 1013.9 hPa | - | - | - | - |
| 1777253877 | 25.56° C | 50% | 1013.5 hPa | - | - | - | - |
| 1777253172 | 25° C | 51% | 1012.8 hPa | - | - | - | - |
| 1777252467 | 25° C | 51% | 1014.2 hPa | - | - | - | - |
| 1777251762 | 25° C | 51% | 1012.5 hPa | - | - | - | - |
| 1777251057 | 25° C | 52% | 1017.6 hPa | - | - | - | - |
| 1777250352 | 24.44° C | 52% | 1013.4 hPa | - | - | - | - |
| 1777249647 | 24.44° C | 53% | 1014.3 hPa | - | - | - | - |
| 1777248947 | 25° C | 52% | 1012.8 hPa | - | - | - | - |
| 1777248221 | 24.44° C | 53% | 1011.7 hPa | - | - | - | - |
| 1777247516 | 23.89° C | 54% | 1012.1 hPa | - | - | - | - |
| 1777246811 | 23.33° C | 55% | 1012.3 hPa | - | - | - | - |
| 1777246106 | 23.89° C | 54% | 1013.1 hPa | - | - | - | - |
| 1777245406 | 23.89° C | 55% | 1011.1 hPa | - | - | - | - |
| 1777244680 | 25° C | 51% | 1013 hPa | - | - | - | - |
| 1777243977 | 24.44° C | 53% | 1011.5 hPa | - | - | - | - |
* Rain since midnight (hover to see other rain measurements)
** Current wind speed in m/s (hover to see current wind gust speed)